�������l�o���
Date,Time,MP-1(��Sv/h),MP-2(��Sv/h),MP-3(��Sv/h),MP-4(��Sv/h),MP-5(��Sv/h),MP-6(��Sv/h),MP-7(��Sv/h),MP-8(��Sv/h),����,����(m/s),���J
2020/01/08,00:00,0.687,0.980,0.670,1.239,0.866,0.405,0.700,0.667,�쐼,2.4,�L
2020/01/08,00:10,0.685,0.975,0.668,1.236,0.862,0.405,0.699,0.665,��쐼,2.0,�L
2020/01/08,00:20,0.685,0.976,0.667,1.233,0.863,0.404,0.700,0.666,��쐼,1.8,�L
2020/01/08,00:30,0.686,0.975,0.666,1.232,0.862,0.404,0.699,0.666,��쐼,1.7,�L
2020/01/08,00:40,0.685,0.976,0.669,1.234,0.862,0.402,0.699,0.666,�쐼,1.5,�L
2020/01/08,00:50,0.684,0.975,0.665,1.233,0.862,0.402,0.698,0.666,�쐼,1.4,�L
2020/01/08,01:00,0.689,0.974,0.666,1.232,0.860,0.402,0.698,0.665,�쐼,1.1,�L
2020/01/08,01:10,0.683,0.976,0.665,1.233,0.860,0.404,0.698,0.664,���쐼,1.5,�L
2020/01/08,01:20,0.685,0.974,0.665,1.232,0.862,0.403,0.699,0.664,���쐼,2.0,�L
2020/01/08,01:30,0.686,0.976,0.664,1.230,0.860,0.402,0.697,0.664,���쐼,1.7,�L
2020/01/08,01:40,0.687,0.978,0.665,1.229,0.862,0.403,0.699,0.664,��,1.8,�L
2020/01/08,01:50,0.687,0.974,0.664,1.231,0.862,0.401,0.697,0.664,��,1.8,�L
2020/01/08,02:00,0.684,0.973,0.663,1.227,0.860,0.405,0.698,0.664,���k��,1.8,�L
2020/01/08,02:10,0.685,0.975,0.666,1.227,0.861,0.401,0.696,0.663,���k��,1.6,�L
2020/01/08,02:20,0.684,0.974,0.664,1.227,0.859,0.403,0.697,0.664,���k��,1.6,�L
2020/01/08,02:30,0.683,0.974,0.664,1.228,0.857,0.402,0.697,0.664,���k��,1.7,�L
2020/01/08,02:40,0.684,0.973,0.663,1.226,0.858,0.402,0.698,0.662,���k��,2.1,�L
2020/01/08,02:50,0.684,0.971,0.665,1.226,0.857,0.405,0.699,0.665,���k��,3.0,�L
2020/01/08,03:00,0.682,0.971,0.665,1.226,0.858,0.402,0.696,0.663,���k��,2.7,�L
2020/01/08,03:10,0.683,0.971,0.663,1.223,0.857,0.403,0.698,0.663,�k��,1.9,�L
2020/01/08,03:20,0.682,0.968,0.664,1.224,0.857,0.403,0.696,0.663,�k��,1.6,�L
2020/01/08,03:30,0.683,0.969,0.662,1.222,0.857,0.404,0.696,0.666,�k��,3.0,�L
2020/01/08,03:40,0.685,0.969,0.664,1.222,0.855,0.404,0.695,0.664,���k��,2.4,�L
2020/01/08,03:50,0.684,0.971,0.663,1.221,0.854,0.403,0.696,0.664,���k��,2.9,�L
2020/01/08,04:00,0.682,0.971,0.664,1.221,0.855,0.404,0.696,0.661,���k��,2.6,�L
2020/01/08,04:10,0.685,0.971,0.664,1.220,0.856,0.404,0.696,0.663,�k��,2.7,�L
2020/01/08,04:20,0.685,0.970,0.662,1.224,0.857,0.406,0.698,0.662,�k��,1.4,�L
2020/01/08,04:30,0.685,0.970,0.663,1.221,0.855,0.403,0.696,0.663,�k��,2.2,�L
2020/01/08,04:40,0.684,0.969,0.662,1.223,0.854,0.402,0.696,0.663,�k��,3.0,�L
2020/01/08,04:50,0.684,0.968,0.660,1.220,0.853,0.401,0.696,0.662,�k��,3.1,�L
2020/01/08,05:00,0.683,0.967,0.662,1.219,0.854,0.402,0.696,0.662,�k��,3.0,�L
2020/01/08,05:10,0.683,0.969,0.661,1.220,0.852,0.402,0.695,0.661,�k��,3.5,�L
2020/01/08,05:20,0.683,0.966,0.662,1.219,0.853,0.401,0.695,0.662,�k��,4.7,�L
2020/01/08,05:30,0.683,0.968,0.662,1.219,0.853,0.402,0.696,0.662,�k��,6.6,�L
2020/01/08,05:40,0.683,0.968,0.662,1.218,0.853,0.402,0.696,0.661,�k�k��,6.9,�L
2020/01/08,05:50,0.683,0.968,0.662,1.220,0.853,0.402,0.696,0.661,�k��,6.9,�L
2020/01/08,06:00,0.682,0.967,0.662,1.221,0.852,0.402,0.696,0.663,�k��,6.6,�L
2020/01/08,06:10,0.682,0.968,0.661,1.220,0.853,0.401,0.694,0.663,�k��,6.6,�L
2020/01/08,06:20,0.685,0.970,0.661,1.221,0.853,0.401,0.695,0.662,�k��,7.4,��
2020/01/08,06:30,0.682,0.969,0.660,1.220,0.853,0.399,0.695,0.661,�k��,6.6,��
2020/01/08,06:40,0.682,0.969,0.659,1.218,0.853,0.399,0.696,0.661,�k��,7.2,�L
2020/01/08,06:50,0.684,0.971,0.660,1.220,0.853,0.401,0.697,0.661,�k��,6.9,�L
2020/01/08,07:00,0.682,0.970,0.659,1.221,0.854,0.398,0.698,0.661,�k��,6.4,�L
2020/01/08,07:10,0.683,0.970,0.660,1.223,0.852,0.399,0.695,0.663,�k��,5.8,��
2020/01/08,07:20,0.681,0.970,0.659,1.222,0.853,0.398,0.698,0.661,�k��,6.6,�L
2020/01/08,07:30,0.682,0.971,0.662,1.220,0.853,0.399,0.697,0.663,�k��,6.6,��
2020/01/08,07:40,0.681,0.970,0.659,1.224,0.855,0.398,0.697,0.661,�k��,6.9,��
2020/01/08,07:50,0.683,0.970,0.659,1.219,0.855,0.398,0.697,0.663,�k��,6.9,��
2020/01/08,08:00,0.683,0.970,0.659,1.224,0.855,0.399,0.695,0.663,�k��,6.9,��
2020/01/08,08:10,0.682,0.970,0.658,1.223,0.853,0.397,0.698,0.663,�k��,5.8,��
2020/01/08,08:20,0.684,0.970,0.659,1.221,0.854,0.399,0.697,0.662,�k��,5.5,��
2020/01/08,08:30,0.681,0.972,0.658,1.221,0.854,0.398,0.695,0.662,���k��,7.2,�L
2020/01/08,08:40,0.685,0.969,0.658,1.223,0.854,0.399,0.698,0.663,�k��,6.3,�L
2020/01/08,08:50,0.682,0.967,0.658,1.222,0.853,0.400,0.697,0.662,�k��,7.1,�L
2020/01/08,09:00,0.682,0.968,0.656,1.221,0.853,0.399,0.695,0.664,�k��,6.4,�L
2020/01/08,09:10,0.683,0.968,0.656,1.220,0.852,0.399,0.697,0.663,�k��,5.5,�L
2020/01/08,09:20,0.683,0.968,0.655,1.222,0.855,0.398,0.698,0.664,�k��,5.8,�L
2020/01/08,09:30,0.682,0.969,0.658,1.225,0.852,0.399,0.697,0.664,�k��,5.5,�L
2020/01/08,09:40,0.684,0.968,0.656,1.222,0.853,0.399,0.700,0.662,�k��,5.2,�L
2020/01/08,09:50,0.683,0.967,0.660,1.224,0.854,0.398,0.698,0.661,�k��,4.9,�L
2020/01/08,10:00,0.682,0.969,0.658,1.223,0.853,0.398,0.696,0.663,�k��,5.0,�L
2020/01/08,10:10,0.682,0.966,0.657,1.221,0.851,0.397,0.697,0.661,�k��,5.3,�L
2020/01/08,10:20,0.681,0.963,0.655,1.218,0.849,0.399,0.695,0.662,�k��,5.3,�L
2020/01/08,10:30,0.680,0.959,0.655,1.218,0.848,0.398,0.695,0.660,�k��,4.3,�L
2020/01/08,10:40,0.680,0.960,0.653,1.216,0.846,0.399,0.696,0.661,�k��,5.0,�L
2020/01/08,10:50,0.676,0.958,0.652,1.211,0.844,0.397,0.692,0.659,�k�k��,3.8,�L
2020/01/08,11:00,0.674,0.950,0.652,1.205,0.839,0.398,0.692,0.660,���k��,4.6,�L
2020/01/08,11:10,0.672,0.944,0.650,1.201,0.838,0.397,0.690,0.660,-,CALM,�L
2020/01/08,11:20,0.671,0.947,0.649,1.199,0.836,0.397,0.690,0.657,-,CALM,�L
2020/01/08,11:30,0.672,0.947,0.648,1.199,0.835,0.395,0.690,0.657,-,CALM,�L
2020/01/08,11:40,0.674,0.944,0.650,1.197,0.833,0.397,0.690,0.657,�k�k��,5.2,�L
2020/01/08,11:50,0.673,0.944,0.650,1.198,0.835,0.396,0.690,0.658,�k�k��,4.3,�L
2020/01/08,12:00,0.677,0.949,0.651,1.200,0.837,0.398,0.691,0.658,�k�k��,3.6,�L
2020/01/08,12:10,0.677,0.950,0.652,1.202,0.839,0.400,0.690,0.660,�k�k��,3.5,�L
2020/01/08,12:20,0.678,0.949,0.652,1.202,0.836,0.399,0.690,0.659,�k�k��,5.6,�L
2020/01/08,12:30,0.679,0.950,0.654,1.199,0.836,0.398,0.691,0.659,�k�k��,6.7,�L
2020/01/08,12:40,0.677,0.952,0.653,1.200,0.836,0.399,0.691,0.661,�k�k��,6.9,�L
2020/01/08,12:50,0.677,0.952,0.653,1.201,0.834,0.399,0.687,0.657,�k�k��,6.1,�L
2020/01/08,13:00,0.679,0.952,0.655,1.202,0.833,0.402,0.690,0.659,�k,5.8,�L
2020/01/08,13:10,0.679,0.954,0.655,1.203,0.837,0.401,0.689,0.659,�k,4.9,�L
2020/01/08,13:20,0.682,0.954,0.654,1.205,0.834,0.400,0.692,0.658,�k,6.0,�L
2020/01/08,13:30,0.683,0.963,0.657,1.209,0.839,0.400,0.691,0.659,�k,4.9,�L
2020/01/08,13:40,0.682,0.959,0.656,1.207,0.839,0.400,0.691,0.661,�k�k��,4.7,��
2020/01/08,13:50,0.681,0.961,0.655,1.207,0.840,0.400,0.692,0.661,�k�k��,5.3,��
2020/01/08,14:00,0.683,0.961,0.652,1.210,0.840,0.400,0.693,0.660,�k�k��,4.6,��
2020/01/08,14:10,0.683,0.961,0.651,1.210,0.841,0.400,0.694,0.661,�k�k��,6.1,��
2020/01/08,14:20,0.682,0.963,0.652,1.211,0.843,0.399,0.692,0.660,�k�k��,6.0,��
2020/01/08,14:30,0.684,0.961,0.650,1.212,0.843,0.400,0.693,0.660,�k�k��,7.1,��
2020/01/08,14:40,0.684,0.959,0.652,1.212,0.842,0.398,0.693,0.661,�k,6.3,��
2020/01/08,14:50,0.684,0.963,0.651,1.213,0.840,0.398,0.693,0.662,�k�k��,6.9,��
2020/01/08,15:00,0.684,0.965,0.652,1.214,0.842,0.396,0.692,0.659,�k�k��,6.3,��
2020/01/08,15:10,0.682,0.964,0.649,1.215,0.844,0.396,0.694,0.660,�k�k��,6.1,��
2020/01/08,15:20,0.684,0.966,0.649,1.215,0.844,0.396,0.693,0.661,�k�k��,6.9,��
2020/01/08,15:30,0.682,0.968,0.649,1.216,0.843,0.398,0.692,0.662,�k�k��,6.7,��
2020/01/08,15:40,0.682,0.965,0.652,1.215,0.845,0.397,0.694,0.660,�k��,8.0,��
2020/01/08,15:50,0.682,0.966,0.653,1.217,0.845,0.396,0.695,0.662,�k��,8.8,��
2020/01/08,16:00,0.684,0.967,0.656,1.219,0.844,0.398,0.694,0.662,�k�k��,6.7,�L
2020/01/08,16:10,0.684,0.968,0.653,1.218,0.845,0.399,0.695,0.662,�k,6.6,�L
2020/01/08,16:20,0.684,0.968,0.654,1.218,0.846,0.398,0.697,0.661,�k,6.4,�L
2020/01/08,16:30,0.684,0.970,0.654,1.219,0.847,0.397,0.696,0.662,�k�k��,6.0,��
2020/01/08,16:40,0.684,0.969,0.656,1.220,0.846,0.399,0.698,0.662,�k�k��,5.5,��
2020/01/08,16:50,0.684,0.969,0.654,1.221,0.848,0.398,0.694,0.663,�k�k��,5.8,��
2020/01/08,17:00,0.685,0.971,0.655,1.219,0.845,0.399,0.698,0.663,�k�k��,6.1,��
2020/01/08,17:10,0.683,0.970,0.656,1.221,0.847,0.399,0.698,0.662,�k�k��,6.1,��
2020/01/08,17:20,0.682,0.969,0.656,1.221,0.846,0.399,0.698,0.663,�k,5.6,��
2020/01/08,17:30,0.684,0.969,0.655,1.220,0.849,0.398,0.696,0.661,�k,4.9,��
2020/01/08,17:40,0.685,0.968,0.656,1.221,0.846,0.397,0.697,0.662,�k�k��,3.8,��
2020/01/08,17:50,0.685,0.968,0.655,1.222,0.848,0.399,0.695,0.663,�k�k��,4.5,��
2020/01/08,18:00,0.684,0.968,0.656,1.220,0.850,0.397,0.696,0.663,�k,5.5,��
2020/01/08,18:10,0.683,0.971,0.656,1.223,0.848,0.396,0.699,0.662,�k,5.6,��
2020/01/08,18:20,0.685,0.971,0.655,1.221,0.849,0.397,0.697,0.661,�k,5.5,��
2020/01/08,18:30,0.685,0.969,0.654,1.223,0.849,0.397,0.697,0.663,�k,5.2,��
2020/01/08,18:40,0.684,0.969,0.654,1.221,0.849,0.401,0.696,0.663,�k,5.2,��
2020/01/08,18:50,0.684,0.969,0.655,1.225,0.849,0.397,0.696,0.662,�k,4.6,��
2020/01/08,19:00,0.684,0.971,0.657,1.222,0.849,0.399,0.696,0.662,�k,4.2,��
2020/01/08,19:10,0.685,0.971,0.656,1.222,0.848,0.398,0.698,0.662,�k,2.4,��
2020/01/08,19:20,0.684,0.973,0.658,1.223,0.851,0.399,0.699,0.662,�k,2.2,��
2020/01/08,19:30,0.685,0.973,0.655,1.223,0.850,0.397,0.697,0.663,�k,2.3,��
2020/01/08,19:40,0.687,0.971,0.657,1.225,0.852,0.398,0.696,0.662,�k,1.8,��
2020/01/08,19:50,0.684,0.974,0.657,1.224,0.848,0.400,0.696,0.664,�k,2.0,��
2020/01/08,20:00,0.684,0.973,0.657,1.226,0.852,0.399,0.697,0.662,�k,1.9,��
2020/01/08,20:10,0.684,0.971,0.657,1.225,0.852,0.399,0.697,0.662,�k�k��,1.7,��
2020/01/08,20:20,0.685,0.973,0.657,1.225,0.851,0.399,0.697,0.663,�k,1.3,��
2020/01/08,20:30,0.685,0.972,0.657,1.223,0.850,0.398,0.696,0.662,�k,0.9,��
2020/01/08,20:40,0.685,0.974,0.657,1.224,0.852,0.399,0.698,0.662,��,0.9,��
2020/01/08,20:50,0.684,0.974,0.657,1.224,0.850,0.399,0.697,0.663,�쐼,1.3,��
2020/01/08,21:00,0.684,0.972,0.657,1.226,0.851,0.399,0.698,0.663,��쐼,1.6,��
2020/01/08,21:10,0.684,0.971,0.658,1.225,0.852,0.400,0.698,0.662,��쓌,2.6,��
2020/01/08,21:20,0.686,0.973,0.658,1.227,0.852,0.399,0.697,0.663,��,1.6,��
2020/01/08,21:30,0.686,0.973,0.657,1.226,0.853,0.402,0.699,0.662,��쓌,1.1,��
2020/01/08,21:40,0.687,0.974,0.658,1.226,0.852,0.400,0.698,0.664,��쓌,1.5,��
2020/01/08,21:50,0.686,0.974,0.657,1.225,0.852,0.399,0.698,0.663,��쐼,3.2,��
2020/01/08,22:00,0.686,0.973,0.660,1.225,0.855,0.398,0.698,0.663,��쐼,3.1,��
2020/01/08,22:10,0.686,0.973,0.657,1.226,0.854,0.401,0.698,0.664,��,3.2,��
2020/01/08,22:20,0.686,0.974,0.658,1.226,0.854,0.401,0.698,0.664,��,3.8,��
2020/01/08,22:30,0.687,0.974,0.657,1.226,0.853,0.400,0.698,0.664,��,4.3,��
2020/01/08,22:40,0.684,0.974,0.659,1.228,0.852,0.399,0.700,0.663,��,4.7,��
2020/01/08,22:50,0.687,0.972,0.659,1.226,0.854,0.401,0.698,0.663,��쐼,4.9,�L
2020/01/08,23:00,0.688,0.975,0.658,1.226,0.853,0.400,0.699,0.663,��쐼,6.6,�L
2020/01/08,23:10,0.688,0.976,0.660,1.226,0.853,0.401,0.697,0.663,��쐼,5.6,�L
2020/01/08,23:20,0.686,0.975,0.660,1.227,0.853,0.400,0.699,0.664,��쐼,4.9,�L
2020/01/08,23:30,0.688,0.976,0.660,1.228,0.853,0.402,0.699,0.665,��,4.2,��
2020/01/08,23:40,0.688,0.975,0.659,1.229,0.853,0.401,0.698,0.664,�쓌,3.8,��
2020/01/08,23:50,0.687,0.975,0.660,1.229,0.855,0.400,0.698,0.666,��쓌,4.9,��
